TOURFACTS.DK  
Stats and Facts from Tour de France.

Tour de France 2017 starts in 38 days
  Riders   Stages   Teams   Summits   Yearly  


 
Search by year

 After:  2016 - Stage 21:   14626 starters.
  5086 different riders.
  632 teams.
  2211 stages.
  454 restdays.
  436049.60 km.
  5622 abandonnees.


Top 3
Christopher Froome89:04:48
Romain Bardet89:08:53
Nairo Quintana89:09:09
Rafal Majka209 pt.
Thomas De Gendt130 pt.
Jarlinson Pantano ..121 pt.
Peter Sagan470 pt.
Marcel Kittel228 pt.
Michael Matthews199 pt.
Adam Yates89:09:30
Louis Meintjes89:11:46
Emanuel Buchmann89:52:28
Facts from Tour de France 1938
  |   Stages.  |   Stage winners.  |   Days in yellow  |   Average speed.  |   Route.  |   Teams.  |   All riders.  |   Rookies.  |   Withdrawls.  |  

  |   GC.  |   Polka  |   Green  |   White  |   Summits. (In tour)  |   Summits. (Points)  |   Miscellaneous.  |  

Stage 2 on 06 - 07 - 1938
         Owning:    Jean Majerus    
Pick a stage:  1 2 3 4a 4b 4c 5 6a 6b 7 8 9 10a 10b 10c 11 12 13 14 15 16 17a 17b 18 19 20a 20b 20c 21
  CaenSaint-Brieuc | Dist: 237.00 km.

Average speed for all riders in stage:  33,142 km./hr.
    Place:Name:Team:Time:Km/h:
LUXJean MajerusLUXLuxembourg07:01:07  +  00:00:00=33,767 
FRAJean-Marie GoasmatFRAFrance07:01:07  +  00:00:00=33,767 
DEUOtto WeckerlingDEUGermany07:01:07  +  00:00:00=33,767 
4 FRAGeorges SpeicherFRAFrance07:01:07  +  00:00:00=33,767 
5 FRAMathias ClemensLUXLuxembourg07:01:07  +  00:00:00=33,767 
6 FRAAntonin MagneFRAFrance07:01:07  +  00:00:00=33,767 
7 FRAAndré LeducqFRACadets07:01:07  +  00:00:00=33,767 
8 DEUHeinz WenglerDEUGermany07:01:07  +  00:00:00=33,767 
9 BELJules LowieBELBelgium07:01:07  +  00:00:00=33,767 
10 FRAVictor CossonFRAFrance07:01:07  +  00:00:00=33,767 
11 FRAAlbert BourlonFRABluets07:02:07  +  00:01:00=33,687 
12 FRAJoseph GoutorbeFRABluets07:03:46  +  00:02:39=33,556 
13 NLDPiet Van NekNLDHolland07:04:14  +  00:03:07=33,519 
14 FRASylvain MarcaillouFRAFrance07:04:14  +  00:03:07=33,519 
15 BELFélicien VervaeckeBELBelgium07:04:14  +  00:03:07=33,519 
16 FRAFabien GalateauFRACadets07:04:14  +  00:03:07=33,519 
17 FRARobert TanneveauFRACadets07:04:14  +  00:03:07=33,519 
18 DEUKarl HeideDEUGermany07:04:14  +  00:03:07=33,519 
19 DEUWilli OberbeckDEUGermany07:04:14  +  00:03:07=33,519 
20 ITASettimo SimoniniITAItaly07:04:29  +  00:03:22=33,500 
21 ITAMario ViciniITAItaly07:04:29  +  00:03:22=33,500 
22 BELAlbertin DisseauxBELBelgium07:04:29  +  00:03:22=33,500 
23 FRARaoul LesueurFRACadets07:04:29  +  00:03:22=33,500 
24 FRAAuguste MalletFRAFrance07:05:37  +  00:04:30=33,410 
25 FRAYvan MarieFRACadets07:05:44  +  00:04:37=33,401 
26 ESPRafael RamosESPSpain07:05:44  +  00:04:37=33,401 
27 CHEEdgar HehlenCHESwitzerland07:05:44  +  00:04:37=33,401 
28 NLDAntoon Van SchendelNLDHolland07:06:12  +  00:05:05=33,365 
29 BELSylvère MaesBELBelgium07:06:19  +  00:05:12=33,355 
30 BELMarcel KintBELBelgium07:06:19  +  00:05:12=33,355 
31 BELÉloi MeulenbergBELBelgium07:06:19  +  00:05:12=33,355 
32 BELEmile Masson jr.BELBelgium07:06:19  +  00:05:12=33,355 
33 BELEdward VissersBELBelgium07:06:19  +  00:05:12=33,355 
34 BELConstant LauwersBELBelgium07:06:19  +  00:05:12=33,355 
35 ITAGino BartaliITAItaly07:06:19  +  00:05:12=33,355 
36 ITAAldo BiniITAItaly07:06:19  +  00:05:12=33,355 
37 ITAEnrico MolloITAItaly07:06:19  +  00:05:12=33,355 
38 ITAGlauco ServadeiITAItaly07:06:19  +  00:05:12=33,355 
39 BELRené PédroliCHESwitzerland07:06:19  +  00:05:12=33,355 
40 CHETheo PerretCHESwitzerland07:06:19  +  00:05:12=33,355 
41 FRARaymond PassatFRACadets07:06:19  +  00:05:12=33,355 
42 CHEAlbert KnuttiCHESwitzerland07:06:19  +  00:05:12=33,355 
43 LUXFrançois NeuensLUXLuxembourg07:06:19  +  00:05:12=33,355 
44 NLDJanus HellemonsNLDHolland07:06:19  +  00:05:12=33,355 
45 FRAPierre ClemensLUXLuxembourg07:06:19  +  00:05:12=33,355 
46 FRALucien Le GuevelFRABluets07:06:19  +  00:05:12=33,355 
47 CHEBruno CariniFRACadets07:06:19  +  00:05:12=33,355 
48 ITAOreste BernardoniFRABluets07:06:19  +  00:05:12=33,355 
49 FRAJules RossiITAItaly07:06:19  +  00:05:12=33,355 
50 ESPJulián BerrenderoESPSpain07:06:19  +  00:05:12=33,355 
51 FRACamille LeroyFRABluets07:06:19  +  00:05:12=33,355 
52 ITAGiuseppe MartanoITAItaly07:06:19  +  00:05:12=33,355 
53 ITAPierre SpaperiFRABluets07:06:19  +  00:05:12=33,355 
54 FRAGaston GrimbertFRABluets07:06:19  +  00:05:12=33,355 
55 FRAEloi TassinFRABluets07:06:19  +  00:05:12=33,355 
56 FRAMarcel LaurentFRAFrance07:06:19  +  00:05:12=33,355 
57 FRAPierre JaminetFRAFrance07:06:19  +  00:05:12=33,355 
58 DEUReinhold WendelDEUGermany07:06:19  +  00:05:12=33,355 
59 ESPMariano CañardoESPSpain07:06:19  +  00:05:12=33,355 
60 ITAGiordano CotturITAItaly07:06:19  +  00:05:12=33,355 
61 DEUJosef ArentsDEUGermany07:06:19  +  00:05:12=33,355 
62 ITADante GianelloFRABluets07:06:19  +  00:05:12=33,355 
63 DEUHerbert HauswaldDEUGermany07:07:27  +  00:06:20=33,267 
64 DEUFritz SchellerDEUGermany07:07:27  +  00:06:20=33,267 
65 FRAGeorges NaisseFRAFrance07:07:50  +  00:06:43=33,237 
66 ESPEmiliano AlvarezESPSpain07:07:50  +  00:06:43=33,237 
67 FRAPierre GallienFRAFrance07:08:14  +  00:07:07=33,206 
68 NLDTheo MiddelkampNLDHolland07:08:39  +  00:07:32=33,174 
69 LUXArsène MerschLUXLuxembourg07:08:39  +  00:07:32=33,174 
70 CHERaymond LouviotFRACadets07:09:19  +  00:08:12=33,122 
71 BELRene WalschotBELBelgium07:09:19  +  00:08:12=33,122 
72 FRAJean FréchautFRAFrance07:12:49  +  00:11:42=32,855 
73 BELFrançois NeuvilleBELBelgium07:16:12  +  00:15:05=32,600 
74 LUXChristophe DidierLUXLuxembourg07:16:12  +  00:15:05=32,600 
75 CHEPaul EgliCHESwitzerland07:17:34  +  00:16:27=32,498 
76 ITAVasco BergamaschiITAItaly07:19:14  +  00:18:07=32,375 
77 DEUPaul SeidelDEUGermany07:20:34  +  00:19:27=32,277 
78 FRAAndre LeforgeFRABluets07:20:34  +  00:19:27=32,277 
79 DEUPaul LanghoffDEUGermany07:20:34  +  00:19:27=32,277 
80 DEUHermann SchildDEUGermany07:20:34  +  00:19:27=32,277 
81 FRALucien LamureFRABluets07:20:34  +  00:19:27=32,277 
82 FRARobert OubronFRACadets07:20:34  +  00:19:27=32,277 
83 BELTheo PirmezBELBelgium07:20:34  +  00:19:27=32,277 
84 FRASauveur DucazeauxFRACadets07:20:34  +  00:19:27=32,277 
85 ITALuigi IntrozziITAItaly07:24:47  +  00:23:40=31,971 
86 ITANello TroggiITAItaly07:24:47  +  00:23:40=31,971 
87 NLDGerrit SchulteNLDHolland07:28:40  +  00:27:33=31,694 
88 CHEBruno BesanaCHESwitzerland07:28:40  +  00:27:33=31,694 
89 NLDJef DominicusNLDHolland07:29:28  +  00:28:21=31,637 
90 FRAJean FontenayFRACadets07:29:28  +  00:28:21=31,637 
91 ESPJacques AlzineESPSpain07:29:28  +  00:28:21=31,637 

Withdrawls: 3
 
Rider
Team
Reason
27  DEUFritz RulandDEUGermanyDid not finish
47  FRAPaul MayeFRAFranceDid not finish
74  FRARené ViettoFRACadetsDid not finish

Todays birthdays.

1892  Alfred Steux
1899  Giovanni Grespan
1903  Jose Trueba
1914  Giordano Cottur
1920  Robert Castelin
1922  François Person
1931  John Kennedy
1931  Isaac Vitré
1940  Andre van Aert
1944  Jean-Claude Theilliere
1951  Roger Verschaeve
1955  Bernard Becaas
1967  Roberto Caruso
1969  Gianvito Martinelli
1974  Fabio Sacchi
1979  Giampaolo Cheula